Wind_Speed
1 2 4 5 4 4 4 3 3 3 3 3 4 4 3 3 3 2 2 2 2 2 2 2 2 2 2 2 2 1 2 2 2 1 2 2 3 3 3 4 4 5 6
1 1 4 5 5 5 5 4 4 4 4 4 4 4 4 4 3 3 2 2 2 2 2 2 2 2 2 2 2 1 1 2 2 1 1 2 2 3 3 3 4 5 6
2 1 3 5 6 6 6 5 5 5 4 5 5 5 5 5 4 3 3 3 3 3 3 3 3 2 2 2 2 1 2 2 1 1 1 1 2 2 3 3 4 5 6
3 1 2 4 6 6 7 7 6 6 5 5 6 6 6 5 5 4 4 4 4 4 4 4 4 3 3 2 2 2 2 2 1 1 0 1 2 2 3 3 4 5 5
3 1 2 4 6 7 8 8 7 7 6 6 6 6 6 6 5 5 4 4 4 4 4 5 4 4 3 3 3 2 2 2 2 1 0 1 2 2 2 3 3 4 4
4 2 2 4 6 7 8 9 9 8 7 7 6 7 6 6 6 5 4 4 5 5 5 5 5 4 4 4 3 3 2 2 2 1 0 1 2 2 2 3 3 4 4
5 3 3 4 6 8 9 9 9 9 8 7 7 7 7 6 6 6 5 5 5 5 5 5 5 5 4 4 3 3 3 2 1 1 1 1 2 2 2 3 3 3 3
5 4 4 5 6 8 10 11 11 10 9 8 7 7 7 6 6 6 6 6 6 6 6 6 5 5 4 4 4 3 3 3 2 2 2 2 2 2 3 3 3 3 3
6 5 5 6 7 9 10 11 11 11 10 9 8 7 7 6 6 6 7 6 6 6 6 5 5 5 4 4 4 4 3 3 2 3 3 3 3 3 3 3 4 3 3
7 7 7 7 9 10 11 11 11 11 11 10 9 8 7 7 7 7 7 6 6 6 6 5 4 4 4 3 3 3 3 3 2 2 3 3 3 3 3 4 4 4 4
9 8 8 8 9 10 11 12 12 12 12 11 9 8 8 7 7 7 6 6 6 5 5 4 4 4 3 3 3 3 2 2 1 2 2 3 3 3 3 3 4 4 5
11 10 10 8 9 11 12 13 13 13 13 12 11 10 9 8 7 7 6 5 5 4 4 4 4 3 3 2 2 2 2 1 1 1 1 3 3 4 4 4 4 5 6
13 12 11 9 9 11 12 14 15 14 13 13 12 11 9 8 7 7 6 5 5 5 4 4 3 3 2 2 2 2 2 1 1 1 1 2 3 3 4 3 3 5 6
14 15 12 11 11 11 12 14 15 15 14 13 13 12 10 9 7 6 6 5 5 4 3 3 2 2 2 2 1 1 1 1 1 1 1 1 2 3 3 4 3 4 6
15 13 13 13 10 10 11 13 13 15 15 14 13 13 11 9 7 7 6 5 4 3 3 2 2 1 1 2 2 1 2 2 1 1 1 1 2 2 3 3 4 5 6
14 14 14 12 11 10 10 11 13 14 14 15 14 13 11 10 8 7 6 5 4 3 2 1 1 0 1 1 1 1 2 2 2 2 1 1 2 2 2 3 3 4 6
14 13 13 10 10 10 9 9 11 13 14 14 14 13 12 10 9 7 6 6 5 4 3 2 1 0 1 1 1 2 2 2 2 2 3 3 2 2 2 2 2 3 5
15 13 11 9 8 9 9 10 11 14 15 14 14 13 12 10 9 9 8 7 6 5 4 3 2 1 1 1 2 2 3 2 3 3 4 4 3 3 2 2 2 3 3
14 13 11 9 6 7 9 10 11 14 15 14 14 14 12 11 10 10 8 7 6 5 4 3 2 1 1 2 2 2 3 3 3 4 5 5 4 4 3 2 2 3 3
12 10 8 7 7 7 8 8 10 12 14 14 14 14 13 12 11 10 9 8 7 6 4 3 3 2 2 2 2 2 2 2 3 4 4 4 4 4 4 3 2 2 2
10 8 6 6 7 7 8 8 9 11 13 14 14 14 13 12 12 11 10 9 8 7 5 4 4 3 3 3 3 3 2 3 3 3 3 3 4 4 4 4 3 2 2
9 7 6 8 7 7 9 10 11 12 13 14 15 15 14 13 13 12 11 10 9 7 6 5 4 4 4 3 3 3 3 3 3 3 3 3 3 3 3 3 3 3 2
8 7 5 6 7 8 9 10 13 13 13 14 16 15 14 14 14 13 12 10 10 8 7 6 5 5 5 4 4 4 3 3 3 3 3 2 2 2 2 3 2 2 2
8 7 5 5 8 9 9 10 13 13 14 14 17 16 15 15 15 14 12 11 11 10 9 8 7 6 6 6 5 4 3 3 2 2 2 2 2 2 2 2 1 1 0
8 7 6 6 7 8 8 10 13 14 15 15 16 16 15 16 15 15 13 12 12 11 10 9 9 8 7 7 5 4 4 3 2 2 1 1 1 0 1 1 1 1 1
7 6 5 3 6 8 9 11 13 15 15 15 16 15 15 16 16 15 14 13 13 13 12 11 10 10 9 8 7 6 5 4 3 3 2 2 2 2 2 3 3 3 3
Wind_Direction
266 225 207 203 206 205 203 210 232 256 277 287 291 294 299 306 309 308 321 332 343 358 12 21 19 15 16 17 26 29 25 27 21 48 71 78 80 84 92 94 94 93 95
329 244 213 209 212 214 214 216 234 254 268 281 284 290 294 295 299 301 308 319 332 345 355 360 358 357 357 0 8 13 12 14 18 52 73 85 84 87 92 98 100 99 99
354 289 217 215 219 221 223 226 235 250 263 275 281 286 290 293 295 298 305 315 324 331 337 343 346 344 337 345 355 356 357 2 20 44 61 75 97 100 100 103 106 109 107
352 314 230 223 223 224 226 229 235 246 258 269 277 284 287 291 291 296 305 310 318 322 323 327 331 327 323 331 343 349 348 357 360 24 73 84 126 123 118 110 114 116 114
2 333 257 230 223 226 227 230 235 242 252 262 272 279 283 287 287 294 302 305 313 316 316 318 321 320 320 320 327 339 340 329 323 323 311 116 142 143 130 127 128 128 124
3 346 279 239 229 228 229 233 234 238 247 255 265 274 281 283 284 288 293 298 304 306 310 314 318 317 314 310 314 324 324 323 307 306 218 174 160 158 151 149 146 143 134
353 335 293 251 233 231 231 232 232 235 242 252 260 266 275 279 280 282 283 290 298 303 308 313 314 310 307 308 309 310 311 307 283 264 218 194 181 179 174 170 163 156 149
349 334 298 264 242 234 232 232 232 234 240 246 253 258 269 276 277 280 281 288 297 300 304 308 309 305 303 307 305 303 295 284 276 251 213 195 188 182 181 183 179 169 166
344 325 307 274 252 240 235 233 232 232 235 239 244 250 259 268 272 279 283 286 294 298 303 309 309 308 308 308 306 302 297 280 262 248 224 211 208 202 199 197 198 193 183
337 321 304 276 255 243 235 230 229 230 230 233 238 243 251 260 265 273 280 284 291 297 302 307 309 311 315 315 308 305 298 287 282 255 226 214 215 210 207 205 205 204 200
330 319 303 282 255 242 233 229 229 228 227 228 232 237 244 253 259 266 275 282 287 293 301 304 305 308 314 318 310 308 300 288 282 246 227 225 226 221 214 207 210 208 202
324 310 301 285 257 244 238 231 228 225 223 224 227 233 241 249 254 264 273 278 280 287 295 298 299 304 316 326 315 307 300 290 296 237 253 244 234 225 214 211 212 208 204
320 309 295 287 264 252 245 233 226 224 222 221 224 229 237 245 252 261 267 270 274 280 286 289 293 300 319 327 319 324 326 320 357 311 267 252 231 216 208 206 206 207 204
314 306 292 289 274 259 249 236 228 225 222 223 225 227 233 241 247 253 262 267 268 268 274 279 290 300 320 343 347 16 16 330 329 297 296 263 225 202 206 211 209 212 209
311 301 286 290 282 262 255 237 230 225 223 221 222 227 230 235 239 243 253 250 242 247 249 258 278 287 329 18 41 55 48 33 42 354 293 248 199 187 197 213 220 218 212
309 296 288 284 278 260 253 236 229 221 217 217 221 223 228 227 227 235 236 227 226 222 223 232 259 316 12 52 71 73 65 55 60 51 80 122 154 173 193 210 213 214 211
309 298 286 281 268 252 245 230 217 211 208 210 214 218 220 220 222 223 213 215 211 205 206 206 192 108 59 85 88 90 90 89 82 80 92 101 113 129 165 188 194 202 205
314 305 290 281 271 243 235 223 211 205 202 206 209 210 209 210 209 204 205 206 201 197 197 200 191 187 111 115 120 111 103 101 94 93 92 90 94 104 120 150 164 177 189
316 306 290 276 264 247 226 212 203 202 198 201 204 202 202 202 200 198 200 197 194 194 199 204 199 181 154 134 130 119 106 104 103 101 95 93 92 95 103 122 142 165 182
320 308 290 261 250 249 224 206 200 197 196 197 199 199 199 198 198 197 197 194 195 198 203 206 203 187 166 146 133 119 114 111 107 105 101 97 92 87 90 104 126 147 171
322 313 296 261 246 244 225 210 202 200 200 198 196 197 198 198 198 199 199 198 199 202 204 206 206 199 178 158 141 131 126 117 112 105 105 100 93 85 81 86 101 119 142
325 315 288 253 241 230 222 212 205 203 203 203 199 196 196 197 199 199 200 199 200 204 206 202 198 195 187 174 159 145 135 126 119 110 110 106 94 82 79 82 86 93 105
330 320 292 250 234 226 219 205 196 197 202 203 200 198 198 200 201 201 204 203 204 209 209 204 199 197 191 180 168 155 143 129 123 118 113 105 85 72 73 81 89 87 88
329 322 299 251 229 220 212 201 194 197 201 201 200 202 203 203 204 205 207 208 208 211 212 212 208 202 195 189 182 172 162 154 145 129 115 110 90 68 65 75 94 92 39
321 318 303 248 221 213 216 210 203 202 203 203 201 201 205 205 206 205 207 213 216 217 217 216 214 210 205 200 198 192 187 188 187 180 167 154 124 22 357 350 348 336 316
328 322 315 249 219 219 212 211 210 207 205 205 203 203 206 206 206 206 210 215 218 221 222 220 218 215 212 210 209 210 214 220 224 226 230 233 243 259 281 292 298 302 304
Height
5889 5889 5889 5890 5891 5892 5892 5893 5893 5894 5894 5895 5895 5895 5894 5894 5894 5894 5893 5893 5892 5891 5891 5890 5890 5889 5889 5889 5888 5888 5888 5887 5887 5887 5887 5887 5886 5886 5886 5886 5886 5885 5885
5888 5888 5889 5889 5890 5892 5892 5893 5894 5894 5895 5895 5895 5895 5895 5895 5895 5894 5894 5893 5892 5892 5891 5890 5890 5890 5889 5889 5889 5888 5888 5888 5887 5887 5887 5887 5887 5887 5886 5886 5886 5886 5886
5888 5888 5888 5889 5890 5891 5892 5893 5894 5894 5895 5895 5896 5896 5896 5895 5895 5895 5894 5893 5893 5892 5891 5891 5890 5890 5889 5889 5889 5888 5888 5888 5887 5887 5887 5887 5887 5887 5887 5887 5887 5887 5887
5887 5887 5888 5888 5889 5891 5892 5893 5893 5894 5895 5895 5896 5896 5896 5896 5895 5895 5894 5894 5893 5892 5891 5891 5890 5890 5889 5889 5889 5888 5888 5888 5888 5888 5888 5888 5888 5888 5888 5888 5888 5888 5889
5886 5887 5887 5888 5889 5890 5891 5892 5892 5893 5894 5895 5895 5896 5896 5896 5895 5895 5894 5894 5893 5892 5891 5891 5890 5890 5889 5889 5888 5888 5888 5888 5888 5888 5888 5888 5888 5888 5888 5889 5889 5889 5890
5886 5886 5886 5887 5888 5889 5890 5891 5892 5892 5893 5894 5895 5895 5896 5896 5895 5895 5894 5894 5893 5892 5891 5891 5890 5889 5889 5888 5888 5888 5888 5888 5888 5888 5888 5888 5888 5889 5889 5889 5889 5890 5890
5884 5885 5885 5886 5886 5887 5888 5889 5890 5891 5892 5893 5894 5895 5895 5895 5895 5895 5894 5893 5893 5892 5891 5891 5890 5889 5889 5888 5888 5888 5888 5888 5887 5887 5887 5888 5888 5889 5889 5889 5890 5890 5891
5883 5883 5884 5884 5885 5886 5887 5888 5889 5890 5891 5892 5893 5894 5894 5895 5895 5894 5894 5893 5892 5892 5891 5890 5890 5889 5889 5888 5888 5888 5888 5887 5887 5887 5887 5887 5888 5888 5889 5889 5890 5890 5891
5882 5882 5882 5883 5883 5884 5885 5886 5887 5888 5889 5891 5892 5893 5893 5894 5894 5894 5893 5893 5892 5891 5890 5890 5889 5889 5888 5888 5888 5888 5887 5887 5887 5887 5887 5887 5888 5888 5889 5889 5890 5890 5890
5881 5881 5881 5880 5881 5881 5882 5884 5885 5886 5888 5889 5890 5891 5892 5893 5893 5893 5892 5892 5891 5891 5890 5889 5889 5888 5888 5888 5888 5887 5887 5886 5886 5887 5887 5887 5887 5888 5888 5888 5889 5889 5890
5879 5879 5878 5878 5878 5879 5880 5881 5882 5884 5886 5887 5889 5890 5891 5891 5892 5892 5892 5891 5891 5890 5890 5889 5888 5888 5888 5888 5887 5887 5886 5886 5886 5886 5886 5887 5887 5887 5887 5887 5888 5889 5890
5877 5876 5876 5875 5875 5876 5877 5878 5880 5882 5884 5885 5887 5888 5889 5890 5890 5891 5891 5891 5890 5890 5889 5888 5888 5887 5887 5887 5887 5886 5886 5886 5886 5886 5886 5886 5886 5886 5886 5887 5887 5888 5889
5874 5873 5872 5872 5872 5873 5874 5875 5877 5879 5881 5883 5885 5887 5888 5889 5889 5890 5890 5890 5890 5889 5889 5888 5888 5887 5887 5887 5886 5886 5886 5886 5886 5885 5885 5885 5885 5885 5886 5886 5886 5887 5888
5871 5869 5868 5868 5868 5869 5870 5872 5874 5876 5879 5881 5883 5885 5886 5887 5888 5889 5889 5889 5889 5889 5888 5888 5887 5887 5887 5887 5886 5886 5885 5885 5885 5885 5885 5885 5884 5885 5885 5885 5886 5886 5887
5868 5866 5865 5865 5865 5865 5867 5868 5870 5873 5876 5879 5881 5883 5884 5885 5887 5888 5888 5888 5888 5888 5888 5888 5887 5887 5887 5886 5886 5886 5885 5885 5884 5884 5884 5884 5884 5884 5884 5885 5885 5885 5886
5864 5862 5862 5862 5862 5863 5864 5865 5867 5870 5873 5876 5879 5881 5882 5884 5885 5886 5887 5887 5888 5888 5888 5887 5887 5887 5887 5887 5886 5886 5886 5885 5884 5884 5884 5884 5883 5883 5884 5884 5884 5884 5885
5860 5859 5859 5858 5859 5859 5861 5862 5864 5867 5870 5873 5876 5879 5881 5882 5884 5885 5886 5887 5887 5887 5888 5888 5887 5887 5887 5887 5886 5886 5886 5885 5885 5884 5884 5884 5883 5883 5883 5883 5883 5883 5884
5858 5856 5855 5855 5855 5856 5858 5860 5862 5865 5868 5871 5874 5876 5879 5881 5882 5884 5885 5886 5886 5887 5887 5887 5887 5887 5887 5887 5887 5886 5886 5886 5885 5885 5884 5884 5883 5883 5883 5883 5883 5883 5883
5854 5853 5852 5852 5853 5854 5856 5858 5860 5863 5866 5869 5872 5875 5877 5879 5881 5883 5884 5885 5886 5887 5887 5887 5887 5887 5887 5887 5887 5887 5886 5886 5886 5885 5885 5884 5884 5883 5883 5882 5882 5883 5883
5852 5850 5849 5849 5851 5853 5855 5856 5858 5861 5863 5867 5870 5873 5875 5877 5880 5882 5883 5884 5886 5886 5887 5887 5887 5887 5887 5887 5887 5887 5887 5886 5886 5886 5885 5885 5884 5883 5883 5883 5882 5882 5883
5851 5849 5848 5848 5849 5851 5853 5855 5857 5859 5862 5865 5868 5871 5874 5876 5878 5880 5882 5884 5885 5886 5886 5886 5887 5887 5887 5887 5887 5887 5887 5887 5886 5886 5885 5885 5885 5884 5884 5883 5883 5882 5882
5850 5849 5848 5848 5848 5849 5851 5853 5855 5858 5861 5864 5867 5869 5872 5875 5877 5879 5881 5882 5884 5885 5886 5886 5886 5887 5887 5887 5887 5887 5887 5888 5887 5886 5886 5885 5885 5885 5884 5884 5883 5883 5882
5850 5848 5847 5846 5847 5848 5850 5851 5854 5856 5859 5862 5865 5868 5871 5873 5875 5877 5879 5881 5882 5884 5885 5885 5886 5886 5887 5887 5887 5888 5887 5887 5887 5887 5886 5886 5886 5885 5885 5884 5883 5883 5882
5849 5847 5845 5845 5845 5847 5848 5850 5853 5855 5858 5861 5864 5866 5869 5871 5874 5876 5877 5879 5881 5882 5883 5884 5885 5886 5886 5887 5887 5887 5887 5887 5887 5887 5887 5886 5886 5885 5885 5884 5884 5883 5882
5847 5845 5844 5843 5843 5844 5847 5849 5851 5854 5856 5859 5862 5864 5867 5869 5872 5874 5876 5877 5879 5881 5882 5883 5884 5885 5885 5886 5886 5886 5887 5887 5887 5887 5887 5887 5886 5886 5885 5884 5884 5883 5882
5845 5844 5843 5841 5843 5845 5846 5847 5849 5852 5854 5857 5860 5862 5865 5867 5870 5872 5874 5875 5877 5879 5880 5881 5882 5883 5884 5885 5885 5886 5886 5886 5886 5886 5886 5886 5886 5885 5885 5884 5883 5882 5882